TimeEST,TemperatureF,Dew PointF,Humidity,Sea Level PressureIn,VisibilityMPH,Wind Direction,Wind SpeedMPH,Gust SpeedMPH,PrecipitationIn,Events,Conditions,WindDirDegrees,DateUTC
12:14 AM,43.0,41.7,95,30.10,2.5,SSW,6.9,-,N/A,,Clear,210,2012-11-22 05:14:00
12:34 AM,43.2,41.9,95,30.09,2.5,South,10.4,-,N/A,,Clear,190,2012-11-22 05:34:00
12:55 AM,43.7,42.1,94,30.09,2.5,SSW,9.2,-,N/A,,Clear,200,2012-11-22 05:55:00
1:15 AM,43.0,41.7,95,30.08,2.5,SSW,8.1,-,N/A,,Clear,200,2012-11-22 06:15:00
1:35 AM,42.8,41.5,95,30.08,2.5,SSW,8.1,-,N/A,,Clear,200,2012-11-22 06:35:00
1:55 AM,42.8,41.4,95,30.08,2.5,SSW,6.9,-,N/A,,Clear,200,2012-11-22 06:55:00
2:15 AM,43.0,41.9,96,30.08,2.5,SSW,9.2,-,N/A,,Clear,210,2012-11-22 07:15:00
2:35 AM,43.0,41.9,96,30.08,2.5,SSW,6.9,-,N/A,,Clear,210,2012-11-22 07:35:00
2:50 AM,42.8,41.7,96,30.09,2.5,SSW,5.8,-,N/A,,Clear,210,2012-11-22 07:50:00
3:10 AM,43.0,41.9,96,30.09,2.5,SSW,5.8,-,N/A,,Clear,210,2012-11-22 08:10:00
3:31 AM,42.8,41.5,95,30.08,2.0,SSW,6.9,-,N/A,,Clear,200,2012-11-22 08:31:00
3:51 AM,42.4,41.4,96,30.07,2.0,SSW,6.9,-,N/A,,Clear,200,2012-11-22 08:51:00
4:11 AM,42.3,41.4,97,30.07,2.0,SSW,6.9,-,N/A,,Clear,200,2012-11-22 09:11:00
4:31 AM,42.1,41.4,97,30.07,2.0,SSW,6.9,-,N/A,,Clear,200,2012-11-22 09:31:00
4:51 AM,42.1,41.2,97,30.06,2.0,SSW,6.9,-,N/A,,Clear,200,2012-11-22 09:51:00
5:11 AM,41.9,41.2,97,30.06,1.8,SSW,8.1,-,N/A,,Mist,200,2012-11-22 10:11:00
5:31 AM,41.9,41.0,97,30.06,1.8,SSW,8.1,-,N/A,,Mist,210,2012-11-22 10:31:00
5:51 AM,41.9,41.0,97,30.06,1.8,SSW,8.1,-,N/A,,Mist,200,2012-11-22 10:51:00
6:12 AM,41.9,41.0,97,30.06,1.8,SSW,8.1,-,N/A,,Mist,200,2012-11-22 11:12:00
6:32 AM,41.4,40.6,97,30.05,1.8,SSW,6.9,-,N/A,,Mist,200,2012-11-22 11:32:00
6:52 AM,41.5,41.0,98,30.05,1.8,South,8.1,-,N/A,,Mist,190,2012-11-22 11:52:00
7:12 AM,41.9,41.0,97,30.05,1.8,SSW,9.2,-,N/A,,Mist,200,2012-11-22 12:12:00
7:32 AM,42.1,41.4,97,30.05,2.0,SSW,8.1,-,N/A,,Clear,200,2012-11-22 12:32:00
7:52 AM,41.9,41.2,97,30.04,1.0,SSW,6.9,-,N/A,,Mist,200,2012-11-22 12:52:00
8:12 AM,41.9,41.0,97,30.03,1.0,South,6.9,-,N/A,,Mist,190,2012-11-22 13:12:00
8:32 AM,42.6,41.9,97,30.03,1.2,South,9.2,-,N/A,,Mist,190,2012-11-22 13:32:00
8:52 AM,44.2,43.0,95,30.03,1.5,South,11.5,-,N/A,,Mist,190,2012-11-22 13:52:00
9:13 AM,45.0,43.5,95,30.02,1.8,South,9.2,-,N/A,,Mist,190,2012-11-22 14:13:00
9:33 AM,46.4,44.2,92,30.02,2.0,SSW,9.2,-,N/A,,Clear,200,2012-11-22 14:33:00
9:53 AM,47.7,45.0,90,30.02,2.5,SSW,10.4,17.3,N/A,,Clear,200,2012-11-22 14:53:00
10:13 AM,48.7,45.7,89,30.01,3.0,SSW,11.5,18.4,N/A,,Clear,200,2012-11-22 15:13:00
10:33 AM,50.2,46.4,87,30.01,3.0,SSW,12.7,18.4,N/A,,Clear,200,2012-11-22 15:33:00
10:53 AM,51.4,46.6,83,30.01,4.0,SSW,12.7,19.6,N/A,,Haze,200,2012-11-22 15:53:00
11:13 AM,53.1,47.1,80,30.01,4.0,SSW,13.8,19.6,N/A,,Haze,200,2012-11-22 16:13:00
11:33 AM,54.7,47.3,76,29.99,5.0,SSW,11.5,19.6,N/A,,Haze,200,2012-11-22 16:33:00
11:53 AM,55.6,46.6,72,29.99,7.0,SSW,13.8,20.7,N/A,,Clear,210,2012-11-22 16:53:00
12:14 PM,56.8,47.3,70,29.97,7.0,SSW,11.5,-,N/A,,Clear,200,2012-11-22 17:14:00
12:34 PM,58.6,46.0,63,29.96,7.0,SSW,13.8,21.9,N/A,,Clear,200,2012-11-22 17:34:00
12:54 PM,59.9,44.6,57,29.95,10.0,South,17.3,25.3,N/A,,Clear,190,2012-11-22 17:54:00
1:14 PM,60.4,41.0,49,29.94,10.0,North,-9999.0,-,N/A,,Clear,0,2012-11-22 18:14:00
1:34 PM,60.6,41.7,50,29.92,10.0,SSW,16.1,24.2,N/A,,Clear,200,2012-11-22 18:34:00
1:54 PM,60.6,41.5,49,29.91,10.0,South,17.3,27.6,N/A,,Clear,190,2012-11-22 18:54:00
2:14 PM,61.2,41.0,47,29.90,10.0,South,13.8,26.5,N/A,,Clear,190,2012-11-22 19:14:00
2:34 PM,59.7,39.6,47,29.90,10.0,SSW,18.4,26.5,N/A,,Clear,210,2012-11-22 19:34:00
2:55 PM,60.6,40.5,47,29.89,10.0,SSW,13.8,23.0,N/A,,Clear,210,2012-11-22 19:55:00
3:15 PM,59.0,39.9,49,29.88,10.0,SSW,11.5,23.0,N/A,,Clear,200,2012-11-22 20:15:00
3:35 PM,59.0,40.5,50,29.87,10.0,South,15.0,19.6,N/A,,Clear,180,2012-11-22 20:35:00
3:55 PM,59.7,40.6,49,29.86,10.0,South,15.0,21.9,N/A,,Clear,180,2012-11-22 20:55:00
4:15 PM,58.8,40.3,50,29.86,10.0,South,15.0,20.7,N/A,,Clear,190,2012-11-22 21:15:00
4:35 PM,57.2,40.1,53,29.86,10.0,South,11.5,-,N/A,,Clear,180,2012-11-22 21:35:00
4:55 PM,56.8,39.6,52,29.85,10.0,South,13.8,17.3,N/A,,Clear,180,2012-11-22 21:55:00
5:15 PM,56.3,39.2,53,29.84,10.0,South,11.5,19.6,N/A,,Scattered Clouds,180,2012-11-22 22:15:00
5:36 PM,55.9,39.2,53,29.84,10.0,South,13.8,17.3,N/A,,Scattered Clouds,180,2012-11-22 22:36:00
5:51 PM,56.3,39.2,53,29.83,10.0,South,11.5,18.4,N/A,,Mostly Cloudy,180,2012-11-22 22:51:00
6:11 PM,56.3,39.2,53,29.82,10.0,South,13.8,18.4,N/A,,Overcast,180,2012-11-22 23:11:00
6:31 PM,56.3,39.4,53,29.81,10.0,South,16.1,21.9,N/A,,Overcast,180,2012-11-22 23:31:00
6:51 PM,56.3,39.4,53,29.80,10.0,South,17.3,23.0,N/A,,Mostly Cloudy,180,2012-11-22 23:51:00
7:11 PM,56.7,39.6,53,29.81,10.0,SSW,16.1,25.3,N/A,,Overcast,200,2012-11-23 00:11:00
7:31 PM,56.3,39.7,54,29.81,10.0,SSW,13.8,18.4,N/A,,Mostly Cloudy,200,2012-11-23 00:31:00
7:51 PM,54.7,41.7,62,29.80,10.0,South,15.0,20.7,N/A,,Overcast,180,2012-11-23 00:51:00
8:11 PM,54.0,43.2,67,29.80,10.0,South,12.7,18.4,N/A,Rain,Light Rain,190,2012-11-23 01:11:00
8:32 PM,52.9,45.0,74,29.81,10.0,SSW,11.5,-,N/A,Rain,Light Rain,210,2012-11-23 01:32:00
8:52 PM,52.5,47.3,82,29.81,5.0,SW,12.7,21.9,N/A,Rain,Heavy Rain,220,2012-11-23 01:52:00
9:12 PM,51.6,48.4,89,29.80,7.0,SSW,15.0,19.6,N/A,,Overcast,200,2012-11-23 02:12:00
9:32 PM,51.4,48.2,89,29.79,7.0,SSW,11.5,16.1,N/A,,Overcast,200,2012-11-23 02:32:00
9:52 PM,51.8,47.8,86,29.78,10.0,SSW,11.5,-,N/A,,Overcast,200,2012-11-23 02:52:00
10:12 PM,51.8,47.5,85,29.77,10.0,SSW,11.5,-,N/A,,Overcast,200,2012-11-23 03:12:00
10:32 PM,51.8,47.3,85,29.76,10.0,SSW,13.8,-,N/A,,Overcast,200,2012-11-23 03:32:00
10:52 PM,52.0,47.1,83,29.75,10.0,SSW,13.8,20.7,N/A,,Overcast,200,2012-11-23 03:52:00
11:13 PM,52.0,46.8,82,29.73,10.0,SSW,12.7,-,N/A,,Overcast,200,2012-11-23 04:13:00
11:33 PM,52.0,46.4,81,29.72,10.0,SSW,12.7,18.4,N/A,,Overcast,200,2012-11-23 04:33:00
11:52 PM,52.0,46.4,81,29.71,10.0,SSW,8.1,-,N/A,,Overcast,200,2012-11-23 04:52:00